Location: Centerville
(32.8776°N, 96.6203°W)
Time: 10:43:32
(UTC+00:00)

Cosmos 2237 - Pass Details

Date: 25 October 2021
Orbit: 845 x 856 km, 70.8° (Epoch: 08 December)

Event Time Altitude Azimuth Distance (km) Brightness Sun altitude
Rises 00:07:33 0° 186° (S) 3,398 7.6 -5.9°
Reaches altitude 10° 00:10:02 10° 181° (S) 2,468 6.8 -6.4°
Maximum altitude 00:15:32 53° 106° (ESE) 1,042 4.4 -7.6°
Drops below altitude 10° 00:21:03 10° 31° (NNE) 2,488 6.3 -8.7°
Sets 00:23:34 0° 27° (NNE) 3,428 7.0 -9.2°
